Samui, Thailand

5:37 AM +07 on May 26, 2018 (GMT +0700)
Samui

Weather History for VTSM - February, 2018

Change the Weather History Date:

Tuesday, February 13, 2018

  Actual Average Record
Temperature  
Mean Temperature 80 °F -  
Max Temperature 84 °F - - ()
Min Temperature 77 °F - - ()
Cooling Degree Days 16    
Growing Degree Days 30 (Base 50)    
Moisture  
Dew Point 73 °F    
Average Humidity 75    
Maximum Humidity 89    
Minimum Humidity 70    
Precipitation  
Precipitation 0.00 in - - ()
Sea Level Pressure  
Sea Level Pressure 29.99 in    
Wind  
Wind Speed 6 mph ()    
Max Wind Speed 12 mph    
Max Gust Speed -    
Visibility 4.6 miles    
Events Rain    
T = Trace of Precipitation, MM = Missing Value Source: Averaged Metar Reports

Daily Weather History Graph

Daily Weather History Graph

Search for Another Location

Airport or City:

Astronomy

Feb. 13, 2018 Rise Set
Actual Time 6:39 AM +07 6:28 PM +07
Civil Twilight 6:18 AM +07 6:49 PM +07
Nautical Twilight 5:53 AM +07 7:14 PM +07
Astronomical Twilight 5:28 AM +07 7:39 PM +07
Moon 4:32 AM +07 (2/13) 4:27 PM +07 (2/13)
Length of Visible Light 12h 31m
Length of Day
11h 48m
Waning Crescent, 7% of the Moon is Illuminated
Feb 13
Waning Crescent
Feb 16
New
Feb 23
First Quarter
Mar 2
Full
Mar 9
Last Quarter

Hourly Weather History & Observations

Time (+07) Temp. Heat Index Dew Point Humidity Pressure Visibility Wind Dir Wind Speed Gust Speed Precip Events Conditions
5:00 AM 80.6 °F 84.6 °F 71.6 °F 74% 29.95 in 5.0 mi SSE 8.1 mph - N/A   Partly Cloudy
5:30 AM 80.6 °F 84.6 °F 71.6 °F 74% 29.95 in 5.0 mi SSE 5.8 mph - N/A   Partly Cloudy
6:00 AM 80.6 °F 84.6 °F 71.6 °F 74% 29.98 in 5.0 mi SE 8.1 mph - N/A   Partly Cloudy
6:30 AM 80.6 °F 84.6 °F 71.6 °F 74% 29.98 in 4.3 mi SE 5.8 mph - N/A   Partly Cloudy
7:00 AM 80.6 °F 84.6 °F 71.6 °F 74% 29.98 in 4.3 mi SSE 8.1 mph - N/A   Partly Cloudy
7:30 AM 80.6 °F 84.6 °F 71.6 °F 74% 30.01 in 4.3 mi SE 6.9 mph - N/A   Partly Cloudy
8:30 AM 82.4 °F 87.2 °F 71.6 °F 70% 30.04 in 4.3 mi SE 8.1 mph - N/A   Partly Cloudy
9:00 AM 84.2 °F 90.9 °F 73.4 °F 70% 30.04 in 4.3 mi SSE 8.1 mph - N/A   Partly Cloudy
9:30 AM 84.2 °F 90.9 °F 73.4 °F 70% 30.04 in 5.0 mi SSE 11.5 mph - N/A   Partly Cloudy
10:00 AM 82.4 °F 88.2 °F 73.4 °F 74% 30.04 in 5.0 mi SSE 5.8 mph - N/A   Partly Cloudy
10:30 AM 84.2 °F 90.9 °F 73.4 °F 70% 30.04 in 5.0 mi SE 9.2 mph - N/A   Partly Cloudy
11:00 AM 82.4 °F 88.2 °F 73.4 °F 74% 30.04 in 5.0 mi SSE 5.8 mph - N/A   Partly Cloudy
11:30 AM 82.4 °F 88.2 °F 73.4 °F 74% 30.04 in 5.0 mi SE 5.8 mph - N/A   Partly Cloudy
12:00 PM 84.2 °F 90.9 °F 73.4 °F 70% 30.01 in 5.0 mi SE 8.1 mph - N/A   Partly Cloudy
1:00 PM 84.2 °F 90.9 °F 73.4 °F 70% 30.01 in 4.3 mi SE 6.9 mph - N/A Rain Light Rain
1:30 PM 82.4 °F 88.2 °F 73.4 °F 74% 29.98 in 5.0 mi SE 6.9 mph - N/A Rain Light Rain
2:00 PM 82.4 °F 88.2 °F 73.4 °F 74% 29.98 in 5.0 mi SE 6.9 mph - N/A Rain Light Rain
2:30 PM 82.4 °F 87.2 °F 71.6 °F 70% 29.98 in 5.0 mi SE 8.1 mph - N/A   Partly Cloudy
3:00 PM 82.4 °F 87.2 °F 71.6 °F 70% 29.98 in 5.0 mi SE 5.8 mph - N/A   Partly Cloudy
3:30 PM 82.4 °F 88.2 °F 73.4 °F 74% 29.95 in 5.0 mi SE 5.8 mph - N/A   Partly Cloudy
4:00 PM 82.4 °F 88.2 °F 73.4 °F 74% 29.95 in 5.0 mi SSE 3.5 mph - N/A   Partly Cloudy
4:30 PM 82.4 °F 88.2 °F 73.4 °F 74% 29.95 in 5.0 mi ESE 3.5 mph - N/A   Partly Cloudy
5:00 PM 82.4 °F 88.2 °F 73.4 °F 74% 29.95 in 4.3 mi SSE 3.5 mph - N/A   Partly Cloudy
5:30 PM 82.4 °F 88.2 °F 73.4 °F 74% 29.95 in 4.3 mi SE 3.5 mph - N/A   Partly Cloudy
6:00 PM 82.4 °F 88.2 °F 73.4 °F 74% 29.95 in 4.3 mi SSE 3.5 mph - N/A   Partly Cloudy
6:30 PM 82.4 °F 88.2 °F 73.4 °F 74% 29.95 in 4.3 mi Calm Calm - N/A   Partly Cloudy
7:00 PM 82.4 °F 88.2 °F 73.4 °F 74% 29.98 in 4.3 mi ESE 3.5 mph - N/A   Partly Cloudy
7:30 PM 80.6 °F 86.2 °F 75.2 °F 84% 29.98 in 4.3 mi SE 3.5 mph - N/A   Partly Cloudy
8:00 PM 78.8 °F - 75.2 °F 89% 29.98 in 4.3 mi ESE 9.2 mph - N/A Rain Light Rain
8:30 PM 80.6 °F 84.6 °F 71.6 °F 74% 30.01 in 4.3 mi East 5.8 mph - N/A   Partly Cloudy
9:00 PM 78.8 °F - 73.4 °F 83% 30.01 in 4.3 mi SSE 11.5 mph - N/A   Partly Cloudy
9:30 PM 77.0 °F - 73.4 °F 89% 30.04 in 4.3 mi SSE 11.5 mph - N/A   Partly Cloudy
10:00 PM 77.0 °F - 73.4 °F 89% 30.04 in 4.3 mi South 9.2 mph - N/A   Partly Cloudy